Regional Weather Roundup
Issued by NWS

Home | Current Version | Previous Version | Graphics & Text | Print | Product List | Glossary On
Versions: 1 2 3 4 5 6 7 8 9 10 11 12 13 14 15 16 17 18 19 20 21 22 23 24 25 26 27 28 29 30 31 32 33 34 35 36 37 38 39 40 41 42 43 44 45 46 47 48 49 50
000
ASUS44 KMEG 171900
RWRTN
TENNESSEE HOURLY STATE WEATHER ROUNDUP
NATIONAL WEATHER SERVICE MEMPHIS TN
100 PM CST SAT FEB 17 2018

TNZ002-004-019-021-049-052-054-088>092-172000-
WEST TENNESSEE

CITY           SKY/WX    TMP DP  RH WIND       PRES   REMARKS
MEMPHIS INTL   LGT RAIN  45  43  93 S6        30.08S
NWS MEMPHIS      N/A     45 N/A N/A MISG        N/A
JACKSON        CLOUDY    45  44  97 W5        30.07R
DYERSBURG      LGT RAIN  43  42  97 S6        30.06F FOG
$$

TNZ008-025-027-028-033-062-065-066-172000-
NORTH MIDDLE TENNESSEE

CITY           SKY/WX    TMP DP  RH WIND       PRES   REMARKS
NASHVILLE      LGT RAIN  43  41  93 S3        30.06R VSB 1
CLARKSVILLE    LGT RAIN  41  38  89 S3        30.04S
SMYRNA         LGT RAIN  43  41  93 S6        30.06F FOG
CROSSVILLE     RAIN      44  42  93 W8        30.07R FOG
$$

TNZ061-075-076-078-094-096-097-172000-
SOUTH MIDDLE TENNESSEE

CITY           SKY/WX    TMP DP  RH WIND       PRES   REMARKS
WINCHESTER     CLOUDY    45  45 100 N13       30.10R
$$

TNZ017-018-042-046-047-172000-
NORTHEAST TENNESSEE

CITY           SKY/WX    TMP DP  RH WIND       PRES   REMARKS
TRI CITIES     CLOUDY    54  47  77 SE6       29.92F
$$

TNZ012-013-036-069-073-074-172000-
CENTRAL EAST TENNESSEE

CITY           SKY/WX    TMP DP  RH WIND       PRES   REMARKS
KNOXVILLE      LGT RAIN  45  45 100 NW8       30.01R FOG
OAK RIDGE      RAIN      44  44 100 CALM      30.04  FOG
$$

TNZ083-085-099-172000-
SOUTHEAST TENNESSEE

CITY           SKY/WX    TMP DP  RH WIND       PRES   REMARKS
CHATTANOOGA    PTSUNNY   56  52  86 S8        30.04F FOG
$$

SKY/WX REPORTED AS FAIR MEANS FEW OR NO CLOUDS BELOW
12 THOUSAND FEET.





USA.gov is the U.S. government's official web portal to all federal, state and local government web resources and services.